Location: D�derode
(51.8092°N, 10.1065°E)
Time: 20:57:23
(UTC+00:00)

H-2A R/B - Pass Details

Date: 01 December 2020
Orbit: 529 x 651 km, 98.3° (Epoch: 24 January)

Event Time Altitude Azimuth Distance (km) Brightness Sun altitude
Rises 16:07:07 0° 161° (SSE) 2,855 6.1 -8.1°
Reaches altitude 10° 16:09:19 10° 160° (SSE) 1,936 5.2 -8.4°
Maximum altitude 16:13:31 82° 73° (ENE) 595 2.4 -9.0°
Drops below altitude 10° 16:17:35 10° 347° (NNW) 1,878 4.9 -9.6°
Sets 16:19:42 0° 346° (NNW) 2,761 5.8 -9.9°
